NZWN

Wellington International Airport

Airport
ICAO code
NZWN
IATA Code
WLG
Summary
ICAO Region
APAC
ICAO Territory
Location

Rongotai, Wellington,

Serving
Wellington
Elevation
42 ft
Coordinates
41° 19' 40" S , 174° 48' 38" E
KCC
Metar
Observation
NZWN 061500Z AUTO 01006KT 9999 NCD 17/15 Q1006
Station
Wellington Airport
Date/Time
2023-02-06 15:00:00
Wind direction
10°
Wind speed
06 kts
Lowest cloud amount
no clouds detected
Temperature
17°C
Dew point
15°C
Humidity
88%
QNH
1006 hPa
Weather condition
n/a

Description

Wellington International Airport (formerly known as Rongotai Airport) is located in the suburb of Rongotai in Wellington, New Zealand.

Climatology

Temperate Marine climate/Oceanic climate (Köppen climate classification Cfb). Moderately cool summer and comparatively warm winter with a temperature range of only 14°C.

Runways

Designator Length Width Surface Rops
16/34 1936 45 ASP Yes/Yes

SKYbrary Partners:

Safety knowledge contributed by: